Time,TemperatureF,DewpointF,PressureIn,WindDirection,WindDirectionDegrees,WindSpeedMPH,WindSpeedGustMPH,Humidity,HourlyPrecipIn,Conditions,Clouds,dailyrainin,SolarRadiationWatts/m^2,SoftwareType,DateUTC
2013-04-21 00:21:00,62.0,34.0,-100.00,North,359,6.0,12.0,35,0.00,,,0.00,0.000000,,2013-04-21 07:21:00,
2013-04-21 00:31:00,62.0,34.0,-100.00,North,359,6.0,12.0,35,0.00,,,0.00,0.000000,,2013-04-21 07:31:00,
2013-04-21 00:41:00,62.0,34.0,-100.00,North,359,6.0,12.0,35,0.00,,,0.00,0.000000,,2013-04-21 07:41:00,
2013-04-21 00:52:00,62.0,34.0,-100.00,North,359,6.0,12.0,35,0.00,,,0.00,0.000000,,2013-04-21 07:52:00,
2013-04-21 01:21:00,61.0,35.0,-100.00,North,7,6.0,9.0,37,0.00,,,0.00,0.000000,,2013-04-21 08:21:00,
2013-04-21 01:32:00,61.0,35.0,-100.00,North,7,6.0,9.0,37,0.00,,,0.00,0.000000,,2013-04-21 08:32:00,
2013-04-21 01:41:00,61.0,35.0,-100.00,North,7,6.0,9.0,37,0.00,,,0.00,0.000000,,2013-04-21 08:41:00,
2013-04-21 01:52:00,61.0,35.0,-100.00,North,7,6.0,9.0,37,0.00,,,0.00,0.000000,,2013-04-21 08:52:00,
2013-04-21 02:21:00,60.0,33.0,-100.00,North,11,7.0,10.0,36,0.00,,,0.00,0.000000,,2013-04-21 09:21:00,
2013-04-21 02:32:00,60.0,33.0,-100.00,North,11,7.0,10.0,36,0.00,,,0.00,0.000000,,2013-04-21 09:32:00,
2013-04-21 02:42:00,60.0,33.0,-100.00,North,11,7.0,10.0,36,0.00,,,0.00,0.000000,,2013-04-21 09:42:00,
2013-04-21 02:52:00,60.0,33.0,-100.00,North,11,7.0,10.0,36,0.00,,,0.00,0.000000,,2013-04-21 09:52:00,
2013-04-21 03:22:00,57.0,32.0,-100.00,NNE,12,5.0,15.0,38,0.00,,,0.00,0.000000,,2013-04-21 10:22:00,
2013-04-21 03:32:00,57.0,32.0,-100.00,NNE,12,5.0,15.0,38,0.00,,,0.00,0.000000,,2013-04-21 10:32:00,
2013-04-21 03:42:00,57.0,32.0,-100.00,NNE,12,5.0,15.0,38,0.00,,,0.00,0.000000,,2013-04-21 10:42:00,
2013-04-21 03:52:00,57.0,32.0,-100.00,NNE,12,5.0,15.0,38,0.00,,,0.00,0.000000,,2013-04-21 10:52:00,
2013-04-21 04:22:00,57.0,32.0,-100.00,North,6,6.0,10.0,38,0.00,,,0.00,0.000000,,2013-04-21 11:22:00,
2013-04-21 04:33:00,57.0,32.0,-100.00,North,6,6.0,10.0,38,0.00,,,0.00,0.000000,,2013-04-21 11:33:00,
2013-04-21 04:42:00,57.0,32.0,-100.00,North,6,6.0,10.0,38,0.00,,,0.00,0.000000,,2013-04-21 11:42:00,
2013-04-21 04:52:00,57.0,32.0,-100.00,North,6,6.0,10.0,38,0.00,,,0.00,0.000000,,2013-04-21 11:52:00,
2013-04-21 05:22:00,56.0,29.0,-100.00,NNE,15,10.0,14.0,36,0.00,,,-99.99,0.000000,,2013-04-21 12:22:00,
2013-04-21 05:32:00,56.0,29.0,-100.00,NNE,15,10.0,14.0,36,0.00,,,-99.99,0.000000,,2013-04-21 12:32:00,
2013-04-21 05:42:00,56.0,29.0,-100.00,NNE,15,10.0,14.0,36,0.00,,,-99.99,0.000000,,2013-04-21 12:42:00,
2013-04-21 05:52:00,56.0,29.0,-100.00,NNE,15,10.0,14.0,36,0.00,,,-99.99,0.000000,,2013-04-21 12:52:00,
2013-04-21 06:21:00,54.0,29.0,-100.00,North,358,10.0,15.0,38,0.00,,,-99.99,0.000000,,2013-04-21 13:21:00,
2013-04-21 06:32:00,54.0,29.0,-100.00,North,358,10.0,15.0,38,0.00,,,-99.99,0.000000,,2013-04-21 13:32:00,
2013-04-21 06:42:00,54.0,29.0,-100.00,North,358,10.0,15.0,38,0.00,,,-99.99,0.000000,,2013-04-21 13:42:00,
2013-04-21 06:52:00,54.0,29.0,-100.00,North,358,10.0,15.0,38,0.00,,,-99.99,0.000000,,2013-04-21 13:52:00,
2013-04-21 07:21:00,54.0,29.0,-100.00,North,11,7.0,14.0,38,0.00,,,0.00,8.000000,,2013-04-21 14:21:00,
2013-04-21 07:32:00,54.0,29.0,-100.00,North,11,7.0,14.0,38,0.00,,,0.00,8.000000,,2013-04-21 14:32:00,
2013-04-21 07:42:00,54.0,29.0,-100.00,North,11,7.0,14.0,38,0.00,,,0.00,8.000000,,2013-04-21 14:42:00,
2013-04-21 07:52:00,54.0,29.0,-100.00,North,11,7.0,14.0,38,0.00,,,0.00,8.000000,,2013-04-21 14:52:00,
2013-04-21 08:22:00,58.0,31.0,-100.00,North,6,10.0,17.0,36,0.00,,,0.00,75.000000,,2013-04-21 15:22:00,
2013-04-21 08:33:00,58.0,31.0,-100.00,North,6,10.0,17.0,36,0.00,,,0.00,75.000000,,2013-04-21 15:33:00,
2013-04-21 08:42:00,58.0,31.0,-100.00,North,6,10.0,17.0,36,0.00,,,0.00,75.000000,,2013-04-21 15:42:00,
2013-04-21 08:53:00,58.0,31.0,-100.00,North,6,10.0,17.0,36,0.00,,,0.00,75.000000,,2013-04-21 15:53:00,
2013-04-21 09:22:00,66.0,31.0,-100.00,North,5,6.0,15.0,27,0.00,,,0.00,444.000000,,2013-04-21 16:22:00,
2013-04-21 09:32:00,66.0,31.0,-100.00,North,5,6.0,15.0,27,0.00,,,0.00,444.000000,,2013-04-21 16:32:00,
2013-04-21 09:42:00,66.0,31.0,-100.00,North,5,6.0,15.0,27,0.00,,,0.00,444.000000,,2013-04-21 16:42:00,
2013-04-21 09:52:00,66.0,31.0,-100.00,North,5,6.0,15.0,27,0.00,,,0.00,444.000000,,2013-04-21 16:52:00,
2013-04-21 10:22:00,72.0,31.0,-100.00,South,176,4.0,9.0,22,0.00,,,0.00,674.000000,,2013-04-21 17:22:00,
2013-04-21 10:32:00,72.0,31.0,-100.00,South,176,4.0,9.0,22,0.00,,,0.00,674.000000,,2013-04-21 17:32:00,
2013-04-21 10:42:00,72.0,31.0,-100.00,South,176,4.0,9.0,22,0.00,,,0.00,674.000000,,2013-04-21 17:42:00,
2013-04-21 10:52:00,72.0,31.0,-100.00,South,176,4.0,9.0,22,0.00,,,0.00,674.000000,,2013-04-21 17:52:00,
2013-04-21 11:22:00,73.0,32.0,-100.00,South,171,10.0,14.0,22,0.00,,,-99.99,863.000000,,2013-04-21 18:22:00,
2013-04-21 11:32:00,73.0,32.0,-100.00,South,171,10.0,14.0,22,0.00,,,-99.99,863.000000,,2013-04-21 18:32:00,
2013-04-21 11:42:00,73.0,32.0,-100.00,South,171,10.0,14.0,22,0.00,,,-99.99,863.000000,,2013-04-21 18:42:00,
2013-04-21 11:52:00,73.0,32.0,-100.00,South,171,10.0,14.0,22,0.00,,,-99.99,863.000000,,2013-04-21 18:52:00,
2013-04-21 12:21:00,75.0,31.0,-100.00,South,173,13.0,18.0,20,0.00,,,0.00,1000.000000,,2013-04-21 19:21:00,
2013-04-21 12:32:00,75.0,31.0,-100.00,South,173,13.0,18.0,20,0.00,,,0.00,1000.000000,,2013-04-21 19:32:00,
2013-04-21 12:42:00,75.0,31.0,-100.00,South,173,13.0,18.0,20,0.00,,,0.00,1000.000000,,2013-04-21 19:42:00,
2013-04-21 12:52:00,75.0,31.0,-100.00,South,173,13.0,18.0,20,0.00,,,0.00,1000.000000,,2013-04-21 19:52:00,
2013-04-21 13:22:00,79.0,32.0,-100.00,South,188,12.0,18.0,18,0.00,,,-99.99,1071.000000,,2013-04-21 20:22:00,
2013-04-21 13:31:00,79.0,32.0,-100.00,South,188,12.0,18.0,18,0.00,,,-99.99,1071.000000,,2013-04-21 20:31:00,
2013-04-21 13:41:00,79.0,32.0,-100.00,South,188,12.0,18.0,18,0.00,,,-99.99,1071.000000,,2013-04-21 20:41:00,
2013-04-21 13:51:00,79.0,32.0,-100.00,South,188,12.0,18.0,18,0.00,,,-99.99,1071.000000,,2013-04-21 20:51:00,
2013-04-21 14:21:00,84.0,37.0,-100.00,SSE,162,8.0,19.0,19,0.00,,,0.00,1064.000000,,2013-04-21 21:21:00,
2013-04-21 14:33:00,84.0,37.0,-100.00,SSE,162,8.0,19.0,19,0.00,,,0.00,1064.000000,,2013-04-21 21:33:00,
2013-04-21 14:43:00,84.0,37.0,-100.00,SSE,162,8.0,19.0,19,0.00,,,0.00,1064.000000,,2013-04-21 21:43:00,
2013-04-21 14:53:00,84.0,37.0,-100.00,SSE,162,8.0,19.0,19,0.00,,,0.00,1064.000000,,2013-04-21 21:53:00,
2013-04-21 15:22:00,86.0,38.0,-100.00,WNW,291,10.0,24.0,18,0.00,,,0.00,1001.000000,,2013-04-21 22:22:00,
2013-04-21 15:33:00,86.0,38.0,-100.00,WNW,291,10.0,24.0,18,0.00,,,0.00,1001.000000,,2013-04-21 22:33:00,
2013-04-21 15:43:00,86.0,38.0,-100.00,WNW,291,10.0,24.0,18,0.00,,,0.00,1001.000000,,2013-04-21 22:43:00,
2013-04-21 15:52:00,86.0,38.0,-100.00,WNW,291,10.0,24.0,18,0.00,,,0.00,1001.000000,,2013-04-21 22:52:00,
2013-04-21 16:22:00,84.0,36.0,-100.00,NW,311,19.0,29.0,18,0.00,,,0.00,872.000000,,2013-04-21 23:22:00,
2013-04-21 16:32:00,84.0,36.0,-100.00,NW,311,19.0,29.0,18,0.00,,,0.00,872.000000,,2013-04-21 23:32:00,
2013-04-21 16:42:00,84.0,36.0,-100.00,NW,311,19.0,29.0,18,0.00,,,0.00,872.000000,,2013-04-21 23:42:00,
2013-04-21 16:52:00,84.0,36.0,-100.00,NW,311,19.0,29.0,18,0.00,,,0.00,872.000000,,2013-04-21 23:52:00,
2013-04-21 17:21:00,83.0,38.0,-100.00,WNW,303,18.0,30.0,20,0.00,,,0.00,678.000000,,2013-04-22 00:21:00,
2013-04-21 17:32:00,83.0,38.0,-100.00,WNW,303,18.0,30.0,20,0.00,,,0.00,678.000000,,2013-04-22 00:32:00,
2013-04-21 17:42:00,83.0,38.0,-100.00,WNW,303,18.0,30.0,20,0.00,,,0.00,678.000000,,2013-04-22 00:42:00,
2013-04-21 17:51:00,83.0,38.0,-100.00,WNW,303,18.0,30.0,20,0.00,,,0.00,678.000000,,2013-04-22 00:51:00,
2013-04-21 18:21:00,80.0,35.0,-100.00,NW,307,20.0,32.0,20,0.00,,,0.00,451.000000,,2013-04-22 01:21:00,
2013-04-21 18:32:00,80.0,35.0,-100.00,NW,307,20.0,32.0,20,0.00,,,0.00,451.000000,,2013-04-22 01:32:00,
2013-04-21 18:41:00,80.0,35.0,-100.00,NW,307,20.0,32.0,20,0.00,,,0.00,451.000000,,2013-04-22 01:41:00,
2013-04-21 18:52:00,80.0,35.0,-100.00,NW,307,20.0,32.0,20,0.00,,,0.00,451.000000,,2013-04-22 01:52:00,
2013-04-21 19:21:00,77.0,36.0,-100.00,NW,306,21.0,30.0,23,0.00,,,0.00,182.000000,,2013-04-22 02:21:00,
2013-04-21 19:32:00,77.0,36.0,-100.00,NW,306,21.0,30.0,23,0.00,,,0.00,182.000000,,2013-04-22 02:32:00,
2013-04-21 19:42:00,77.0,36.0,-100.00,NW,306,21.0,30.0,23,0.00,,,0.00,182.000000,,2013-04-22 02:42:00,
2013-04-21 19:51:00,77.0,36.0,-100.00,NW,306,21.0,30.0,23,0.00,,,0.00,182.000000,,2013-04-22 02:51:00,
2013-04-21 20:22:00,72.0,33.0,-100.00,WNW,289,6.0,24.0,24,0.00,,,0.00,9.000000,,2013-04-22 03:22:00,
2013-04-21 20:33:00,72.0,33.0,-100.00,WNW,289,6.0,24.0,24,0.00,,,0.00,9.000000,,2013-04-22 03:33:00,
2013-04-21 20:42:00,72.0,33.0,-100.00,WNW,289,6.0,24.0,24,0.00,,,0.00,9.000000,,2013-04-22 03:42:00,
2013-04-21 20:52:00,72.0,33.0,-100.00,WNW,289,6.0,24.0,24,0.00,,,0.00,9.000000,,2013-04-22 03:52:00,
2013-04-21 21:23:00,70.0,38.0,-100.00,South,181,6.0,16.0,31,0.00,,,0.00,0.000000,,2013-04-22 04:23:00,
2013-04-21 21:32:00,70.0,38.0,-100.00,South,181,6.0,16.0,31,0.00,,,0.00,0.000000,,2013-04-22 04:32:00,
2013-04-21 21:43:00,70.0,38.0,-100.00,South,181,6.0,16.0,31,0.00,,,0.00,0.000000,,2013-04-22 04:43:00,
2013-04-21 21:52:00,70.0,38.0,-100.00,South,181,6.0,16.0,31,0.00,,,0.00,0.000000,,2013-04-22 04:52:00,
2013-04-21 22:22:00,66.0,37.0,-100.00,WSW,249,0.0,16.0,34,0.00,,,0.00,0.000000,,2013-04-22 05:22:00,
2013-04-21 22:32:00,66.0,37.0,-100.00,WSW,249,0.0,16.0,34,0.00,,,0.00,0.000000,,2013-04-22 05:32:00,
2013-04-21 22:42:00,66.0,37.0,-100.00,WSW,249,0.0,16.0,34,0.00,,,0.00,0.000000,,2013-04-22 05:42:00,
2013-04-21 22:52:00,66.0,37.0,-100.00,WSW,249,0.0,16.0,34,0.00,,,0.00,0.000000,,2013-04-22 05:52:00,
2013-04-21 23:21:00,66.0,38.0,-100.00,North,355,1.0,5.0,35,0.00,,,0.00,0.000000,,2013-04-22 06:21:00,
2013-04-21 23:32:00,66.0,38.0,-100.00,North,355,1.0,5.0,35,0.00,,,0.00,0.000000,,2013-04-22 06:32:00,
2013-04-21 23:42:00,66.0,38.0,-100.00,North,355,1.0,5.0,35,0.00,,,0.00,0.000000,,2013-04-22 06:42:00,
2013-04-21 23:51:00,66.0,38.0,-100.00,North,355,1.0,5.0,35,0.00,,,0.00,0.000000,,2013-04-22 06:51:00,